Theta_e
331 328 328 323 308 305 301 301 306 304 304 309 311 309 307 309 307 303 315 316 320 324 327 331 333 334 335 335 338 340 341 342 342 343 343 343 342 343 343 342 343 345 346 346 347 347 348 347 347
325 323 324 318 304 300 301 305 302 305 307 309 308 307 306 306 311 311 312 312 319 321 325 326 330 328 329 331 333 333 334 335 337 339 339 339 338 339 339 341 340 341 342 343 345 346 346 346 346
323 322 317 310 304 299 300 304 305 307 307 307 306 308 308 308 310 314 312 312 318 320 322 323 326 325 325 326 327 326 327 330 329 330 333 333 330 330 332 333 333 334 335 337 339 340 340 340 342
320 317 312 303 301 304 303 305 306 305 306 307 308 305 307 311 311 315 310 310 315 318 319 320 322 322 322 321 321 321 321 322 323 326 324 323 322 323 324 325 326 326 328 330 333 334 333 333 336
317 315 305 302 302 304 305 306 307 305 306 306 306 304 305 307 310 310 307 307 309 314 316 316 317 318 318 318 318 318 317 317 317 318 317 317 317 318 318 319 319 320 321 322 326 328 327 327 329
311 311 302 300 302 304 305 307 306 306 307 306 304 305 307 309 307 307 307 306 306 307 311 312 312 314 314 314 313 314 314 313 313 312 313 313 312 313 313 314 315 316 316 316 319 318 318 320 322
310 308 303 303 302 303 305 307 305 306 307 305 307 304 306 305 308 306 306 305 305 306 306 307 308 309 310 309 309 310 310 310 310 309 308 308 308 308 309 309 312 313 314 314 315 315 315 315 315
310 307 303 303 301 302 305 305 306 306 306 307 308 304 306 307 308 305 305 304 304 304 304 304 305 305 306 306 306 307 307 307 306 305 304 303 305 305 305 305 307 310 310 311 311 312 312 312 312
313 303 302 302 301 303 305 303 305 305 306 305 306 307 305 308 305 303 302 302 303 302 302 303 304 304 304 304 302 304 304 303 301 303 302 306 305 304 304 303 304 306 306 308 309 309 309 309 312
308 304 303 306 306 304 305 304 306 302 303 304 305 307 303 305 302 301 301 300 301 300 301 302 302 303 303 300 303 303 302 303 303 304 304 303 304 302 302 304 304 304 303 305 306 307 307 309 305
308 303 306 306 306 305 304 304 306 303 302 306 306 307 304 303 301 301 302 303 302 302 301 300 301 302 302 301 303 303 303 303 303 303 303 303 303 302 302 302 302 303 304 301 302 302 302 303 304
303 307 306 306 305 304 303 306 303 304 306 307 309 310 306 302 301 301 303 303 303 302 301 300 301 301 302 302 302 302 302 302 302 301 300 301 301 300 300 300 300 302 301 300 300 301 302 302 303
304 306 305 306 305 304 305 302 303 305 309 310 308 304 306 303 303 304 304 305 304 301 300 299 300 300 301 301 301 301 301 301 300 300 299 299 298 298 298 298 298 298 298 297 297 299 299 300 301
305 304 305 306 305 304 301 303 302 306 308 308 308 305 304 304 304 305 304 303 303 301 299 299 299 300 300 300 300 300 300 299 299 299 297 296 297 296 295 296 296 296 296 296 296 296 297 298 299
303 300 304 305 304 302 302 299 300 306 306 304 305 305 305 305 305 304 305 303 303 301 300 299 299 299 298 299 299 299 299 298 297 297 296 295 294 294 294 294 294 295 295 294 295 295 296 296 297
300 301 297 304 303 302 301 295 303 307 305 303 305 306 305 305 304 305 305 303 303 300 299 299 297 298 298 298 298 297 297 296 296 295 295 294 293 293 293 292 292 293 293 293 293 293 293 294 294
301 296 298 301 303 301 299 297 303 306 304 303 304 305 306 305 304 305 305 304 302 300 298 297 297 296 297 297 296 296 296 295 295 294 294 293 292 291 291 291 292 292 292 292 292 292 292 292 293
296 296 298 298 301 299 298 297 301 304 303 303 304 305 305 306 305 303 304 304 302 300 298 297 296 296 296 296 295 294 294 294 293 293 292 291 291 290 290 290 291 291 290 290 291 290 292 291 292
299 297 296 299 302 298 297 297 300 303 303 303 303 304 304 305 308 304 304 303 301 299 297 296 295 295 295 294 292 292 291 293 292 292 291 291 290 290 289 289 289 290 289 290 290 290 289 291 292
298 295 295 300 302 295 296 296 300 301 302 302 302 303 304 305 305 302 302 301 299 296 296 296 295 294 294 294 294 293 293 292 292 292 291 291 290 289 288 288 288 288 288 288 289 289 288 290 291
296 294 296 296 300 297 295 293 297 300 301 301 301 302 303 303 303 301 299 298 298 295 295 295 295 294 294 293 292 290 290 289 289 290 290 290 289 289 288 287 287 287 288 287 288 288 287 285 288
293 299 298 296 294 290 295 286 295 298 299 299 299 302 304 302 301 301 298 297 296 295 296 295 294 294 293 292 290 289 288 288 290 291 290 289 289 288 287 287 287 286 287 287 287 287 286 286 284
295 295 295 295 293 293 292 289 293 294 294 296 299 302 305 303 301 299 298 296 296 295 295 295 294 293 292 291 290 290 290 290 290 288 287 288 288 288 287 286 286 285 286 286 286 285 285 285 284
294 293 292 291 291 285 291 291 291 294 295 297 300 302 304 302 300 299 299 297 295 295 294 294 292 292 291 290 290 289 289 288 287 286 286 286 287 286 286 285 285 284 284 284 284 284 284 284 284
293 292 287 287 286 285 294 290 293 298 298 299 299 301 303 301 300 299 297 295 295 294 293 293 292 290 291 289 289 289 289 288 287 286 285 285 284 284 284 284 283 283 283 283 282 282 282 283 282
291 293 289 284 284 287 288 286 292 300 301 301 301 301 301 300 300 299 298 296 294 293 292 292 291 290 289 289 288 288 288 287 286 285 284 283 283 283 283 282 281 281 281 281 281 281 281 282 282
292 287 295 290 289 285 289 293 299 301 298 298 298 298 299 298 299 298 298 296 295 293 291 291 291 290 289 288 288 287 286 285 284 283 283 282 282 281 281 280 279 279 279 279 279 279 279 280 280
291 293 288 289 283 281 286 289 290 295 296 297 297 298 300 300 299 299 298 296 295 293 291 291 291 289 289 287 287 285 284 284 283 282 280 280 280 280 279 278 278 278 277 277 277 277 278 278 279
287 287 288 288 289 284 282 287 295 296 297 297 299 300 301 301 300 299 297 296 295 293 291 291 290 289 288 286 286 284 283 282 281 279 279 279 279 278 277 276 276 275 275 275 275 275 275 275 275
293 291 291 285 284 287 286 287 297 297 298 298 298 300 302 303 302 302 299 296 294 292 291 290 289 289 288 286 284 282 281 279 278 277 278 278 276 276 275 275 274 273 273 273 273 272 273 272 272
Wind_Speed
6 6 4 4 7 6 4 4 1 6 5 4 4 5 5 4 2 2 5 5 6 7 4 10 10 11 10 10 10 12 13 14 13 12 13 13 11 12 12 12 12 12 11 11 10 11 11 10 9
4 4 5 4 7 8 3 6 8 8 7 6 3 2 4 5 4 7 9 6 6 6 6 8 8 10 11 11 12 12 12 11 10 12 14 13 14 14 15 14 15 14 13 13 13 13 14 13 11
6 6 5 4 6 7 5 5 6 8 8 8 6 4 3 1 3 9 9 9 8 7 6 8 8 9 10 11 11 11 12 12 12 11 11 14 13 13 13 13 13 13 13 13 13 14 14 15 14
4 5 5 7 10 4 4 4 5 9 5 3 2 5 3 6 5 5 10 9 8 7 6 8 8 8 9 10 11 11 12 12 12 12 13 12 12 12 12 12 12 12 13 13 12 12 12 12 12
5 5 7 7 8 3 1 1 6 9 7 7 6 2 2 6 5 11 11 9 9 8 7 8 7 7 8 9 9 10 10 11 11 10 11 11 12 12 12 13 13 14 14 15 13 13 14 14 15
6 4 7 8 3 0 2 5 8 9 8 6 6 9 2 9 12 12 11 9 8 8 6 6 7 8 8 8 8 8 9 9 10 10 10 11 11 12 12 13 13 13 13 13 12 13 13 13 14
8 6 11 8 9 6 6 6 11 10 11 10 1 6 4 11 12 12 11 9 8 7 7 6 7 8 8 8 8 8 9 8 9 10 10 10 10 11 12 12 14 14 15 15 13 14 14 14 14
5 4 8 5 5 6 4 7 3 11 11 4 5 6 8 13 15 13 11 10 9 7 6 6 6 6 6 7 8 9 9 9 9 8 6 2 4 6 9 12 13 13 15 13 14 14 16 16 15
2 6 7 6 5 2 4 8 5 4 7 4 9 8 5 13 16 14 12 12 10 8 8 8 8 7 6 6 7 9 8 7 4 4 2 1 5 7 7 9 12 12 14 12 14 14 16 15 13
6 6 7 2 4 5 4 9 8 5 12 14 13 11 5 16 16 17 17 15 15 14 12 10 9 7 6 5 6 5 4 3 3 3 4 4 5 5 6 5 7 10 11 12 14 13 13 10 8
4 7 5 6 6 5 8 9 9 9 15 15 16 15 16 16 17 18 18 18 17 15 12 12 11 10 9 6 5 3 3 3 2 4 4 4 4 5 5 4 5 6 8 7 9 9 7 9 7
6 11 8 2 3 4 9 6 7 17 19 2 4 8 17 19 19 21 20 19 17 17 15 13 12 10 9 6 5 4 3 2 2 4 3 3 3 5 5 4 6 6 6 7 7 5 7 9 9
9 10 6 9 6 10 8 14 13 18 17 16 10 6 14 18 20 20 19 18 17 18 16 15 13 11 9 8 6 5 5 3 3 3 4 3 4 4 4 4 5 5 6 7 8 7 8 9 10
5 8 12 9 12 10 10 15 4 12 10 17 18 17 17 19 21 19 19 20 19 17 18 16 15 13 11 9 8 6 5 5 4 3 3 4 3 3 3 4 5 5 6 7 8 8 8 7 8
5 10 14 16 12 8 7 10 19 20 11 12 14 16 18 20 20 23 21 20 20 17 17 17 15 13 12 10 8 6 6 5 5 4 4 3 3 4 4 4 4 5 6 8 7 8 7 7 7
6 7 12 2 11 6 8 18 12 10 10 16 18 18 18 20 22 21 19 20 21 19 19 17 13 14 13 11 9 7 6 5 5 4 3 3 3 3 4 4 5 6 6 7 8 8 8 8 7
11 12 15 15 15 4 13 15 11 4 10 19 19 20 19 20 20 20 21 21 20 20 19 17 15 15 13 10 8 7 7 5 4 4 3 3 3 4 4 4 5 7 6 7 7 7 8 8 8
17 16 15 15 10 13 16 22 21 22 21 23 24 24 21 20 21 19 20 18 19 18 18 18 14 15 14 9 8 6 6 5 4 4 3 3 1 2 3 4 6 6 6 6 7 9 8 9 9
22 20 23 23 9 9 20 24 23 22 22 24 23 23 21 19 13 15 18 18 17 17 18 19 17 16 11 9 8 6 7 6 6 5 4 4 1 2 3 4 6 6 6 8 9 8 10 8 8
18 20 25 22 9 5 16 23 22 22 26 25 23 22 17 13 11 14 17 17 18 18 18 18 18 17 13 8 7 4 7 6 5 5 5 4 2 3 3 5 6 6 6 9 9 8 7 7 5
18 21 22 21 14 13 16 22 18 13 16 18 21 17 15 13 13 15 18 20 18 20 20 18 17 16 14 12 8 5 4 3 5 6 5 5 4 3 5 6 6 6 7 7 8 8 9 7 6
19 9 17 18 11 15 2 20 15 16 19 12 18 17 14 11 10 13 18 19 20 19 17 18 17 16 15 15 11 13 8 7 7 5 4 3 3 5 5 5 6 7 7 8 8 6 7 8 8
5 2 4 8 13 18 17 18 14 7 11 13 18 18 11 10 13 16 18 18 19 18 18 17 17 17 15 15 13 10 9 5 5 4 4 4 5 6 5 6 6 7 7 8 9 9 8 7 8
7 3 3 4 6 15 21 20 7 8 7 9 13 13 8 9 12 13 14 15 16 16 17 17 19 17 17 16 15 14 12 9 7 7 5 5 4 3 5 5 6 7 8 9 8 9 10 9 9
9 6 7 9 7 17 12 14 17 12 14 16 21 18 7 10 13 15 17 16 16 19 20 17 20 20 19 17 16 15 12 11 10 8 6 6 4 4 5 5 6 6 8 9 9 10 11 11 10
13 10 6 11 14 22 7 16 12 11 13 11 12 6 5 11 12 14 16 15 16 18 20 20 20 20 19 17 16 13 13 8 7 8 6 5 5 5 5 5 7 9 9 9 10 9 9 11 9
10 9 6 10 4 9 15 28 26 10 11 11 7 5 11 11 11 14 14 16 16 17 21 22 20 19 20 19 15 15 13 12 10 10 8 6 7 6 5 6 8 9 10 10 11 8 11 11 11
6 3 6 6 7 16 27 25 20 12 14 8 7 10 12 10 13 12 13 15 15 17 18 19 20 20 18 17 16 14 14 12 10 10 10 9 7 6 6 7 9 9 9 10 10 10 11 12 10
8 8 7 5 11 13 17 19 6 2 7 3 7 9 8 8 10 12 11 12 14 14 17 18 19 21 19 18 16 15 13 13 11 10 10 8 7 6 7 8 8 9 10 9 10 12 12 13 14
13 18 19 12 18 10 16 29 9 8 7 5 6 6 8 6 10 11 13 14 15 17 17 18 18 19 18 17 16 15 14 13 12 11 10 8 8 7 7 7 8 9 9 10 11 11 11 13 15
Wind_Direction
195 225 263 242 242 231 226 193 31 167 172 96 226 174 252 334 246 1 126 118 117 89 66 74 46 54 58 46 44 42 42 43 44 49 56 51 46 43 37 32 27 23 19 8 357 349 349 354 353
219 240 234 274 255 250 115 142 191 178 86 151 147 226 251 242 92 117 153 135 107 88 75 62 51 64 65 61 60 55 53 53 47 44 46 45 46 39 37 36 33 25 22 15 10 7 5 357 351
253 260 261 241 266 282 352 167 171 121 139 172 181 267 306 31 117 146 99 133 133 105 90 70 62 69 73 76 75 71 68 68 66 63 62 52 48 48 47 44 37 32 25 18 9 8 8 3 355
243 200 231 251 264 307 312 165 145 146 157 219 248 211 143 33 149 131 137 142 135 126 114 84 74 79 78 81 79 77 75 76 73 70 70 61 55 50 44 40 35 29 23 15 13 7 2 359 356
232 255 257 246 278 297 233 298 172 181 163 174 196 224 220 165 113 134 151 151 149 141 120 96 78 83 83 80 79 81 78 74 73 69 68 62 54 48 37 33 27 21 16 10 10 10 2 359 360
245 277 252 263 321 230 233 193 197 210 187 130 211 252 237 135 168 165 161 158 153 137 131 120 89 83 81 82 82 85 86 82 76 70 62 59 53 47 41 32 25 20 13 6 5 360 353 349 348
264 269 280 297 284 260 228 181 207 218 223 207 304 239 95 176 179 164 171 159 159 145 150 153 139 107 88 82 82 87 85 77 68 58 54 53 47 43 35 29 21 17 11 4 358 352 345 340 338
277 267 279 257 295 281 152 190 291 233 244 88 172 236 231 180 169 170 170 175 174 169 168 161 160 164 144 119 90 89 88 83 75 65 60 32 95 41 48 25 17 13 7 358 357 349 345 339 331
256 255 266 282 266 4 135 216 165 4 251 206 196 265 67 140 157 174 182 188 186 185 186 180 179 177 157 140 118 113 102 96 106 122 37 226 38 26 17 38 11 9 3 354 355 348 341 329 313
246 262 295 346 286 272 205 236 234 221 216 230 235 221 161 160 176 187 193 198 197 194 192 189 185 179 169 160 154 132 134 94 73 45 31 27 31 27 4 27 8 5 9 355 354 349 334 342 339
187 252 355 269 259 270 262 243 219 231 250 237 239 223 185 190 195 204 207 207 202 199 192 191 189 181 178 165 168 168 157 154 116 60 33 36 33 20 20 11 6 358 8 357 352 347 349 336 328
258 244 254 294 226 245 245 273 239 230 241 104 317 282 172 199 206 211 212 210 202 200 193 193 190 186 180 170 187 170 163 159 129 77 38 42 43 29 18 13 360 355 358 346 340 334 328 326 324
245 277 250 247 224 238 257 248 255 261 252 257 221 225 202 208 215 215 217 213 207 203 196 194 189 187 177 187 176 172 154 168 134 126 73 42 57 35 13 5 353 348 349 342 335 331 331 326 324
360 278 266 257 248 242 233 256 254 254 250 244 240 225 226 217 217 214 213 212 206 198 200 193 191 188 179 185 180 170 164 153 155 122 94 73 52 35 10 2 350 341 347 337 325 323 319 317 313
283 280 272 246 240 243 205 248 232 251 231 231 233 236 230 225 219 217 211 210 204 200 195 196 190 186 181 179 175 171 164 166 151 134 130 101 58 33 4 348 333 342 335 317 316 314 315 317 313
257 254 270 204 179 186 200 265 250 251 204 235 246 242 233 229 225 221 212 205 202 197 195 191 188 183 181 178 175 171 165 163 152 151 163 129 72 27 352 345 340 337 322 323 322 326 324 317 316
204 267 267 261 191 164 211 266 278 231 243 266 263 258 246 233 228 227 220 206 199 197 193 188 186 185 180 173 171 168 164 172 156 171 182 122 53 19 349 333 316 323 319 318 316 318 316 307 311
292 284 268 261 194 219 235 249 272 279 273 271 268 263 257 251 228 219 224 211 199 194 193 189 185 185 179 168 172 170 166 172 167 194 179 139 78 3 331 324 322 317 308 305 303 302 301 301 300
276 284 276 273 273 224 247 262 270 275 278 274 275 272 264 253 241 209 212 205 195 192 192 194 188 186 177 179 178 181 186 182 185 191 170 180 139 341 318 309 301 297 290 290 292 296 304 302 311
259 265 267 273 297 211 272 270 270 267 266 272 273 271 274 267 205 208 202 194 194 191 194 193 193 188 187 183 183 189 182 189 194 176 179 172 188 237 265 280 283 283 293 291 289 296 300 302 306
243 250 260 274 305 237 267 274 259 244 254 259 267 263 266 253 222 202 195 194 194 199 195 196 192 189 187 184 168 161 149 194 191 197 189 185 202 229 249 258 276 296 289 284 292 291 299 296 306
259 265 254 270 282 276 81 287 283 284 263 239 267 270 259 215 205 200 192 192 197 199 194 195 194 192 187 180 180 189 197 195 196 173 161 194 232 248 253 263 273 277 281 277 281 289 294 297 296
240 2 250 259 259 282 262 268 278 193 263 230 247 262 270 188 200 195 189 192 196 195 193 194 192 193 184 185 188 189 199 195 174 177 205 233 241 240 249 258 272 282 283 281 285 287 283 283 280
120 227 222 229 267 257 260 246 273 229 224 231 249 243 251 187 188 196 189 189 194 188 192 194 190 191 187 190 195 195 192 185 184 195 207 218 227 245 253 260 264 276 277 281 293 292 286 280 277
206 214 272 251 218 263 280 262 257 277 251 256 263 267 197 174 183 184 187 188 189 192 191 194 194 193 190 192 191 191 193 191 197 199 209 221 243 254 252 265 284 290 295 300 295 287 279 275 273
198 217 218 264 263 284 101 263 263 237 231 234 249 245 185 186 189 188 190 190 193 190 192 196 199 194 187 187 192 190 190 190 194 197 202 212 229 248 271 287 292 285 289 288 284 281 280 281 278
162 204 256 275 264 280 266 270 268 231 197 223 217 213 224 208 199 199 197 195 194 191 196 197 200 199 189 185 186 187 186 186 186 187 193 208 224 235 252 269 279 281 284 287 288 283 285 286 284
241 39 187 204 259 254 278 278 280 270 227 213 232 236 248 210 213 218 205 197 194 194 197 198 199 198 189 186 185 185 180 181 183 180 195 204 215 232 252 262 264 273 282 285 284 282 279 279 276
187 223 220 300 240 253 269 270 49 42 136 301 224 246 240 211 210 214 206 201 200 196 197 199 196 193 189 187 182 179 175 176 180 184 192 200 207 220 237 253 271 275 278 280 277 275 279 280 281
248 228 220 219 231 232 250 269 129 111 107 141 213 204 249 224 218 221 202 201 200 199 195 198 196 195 191 184 179 175 169 170 179 185 186 189 206 217 237 254 262 266 267 271 275 281 285 284 283